Terug naar catalogus

COSMOS 1375 DEB

ActiefLEO
NORAD 16384·DEBRIS·🇷🇺 Russia

Gelanceerd Jun 6, 1982 vanaf Plesetsk Cosmodrome

Loading…

Volgende Passages (komende 24 uur)

TLE

VersSource: Space-Track

Epoch: Sep 14, 2026, 08:11 UTC

1 16384U 82055Y   26257.34111749  .00000050  00000-0  14569-3 0  9997
2 16384  65.8308 236.9921 0039203 357.6987 150.8171 13.70370320 43059

Volg COSMOS 1375 DEB in realtime met AllMySat

Download on the App Store